Location: Jaworzyna Śląska
(50.9128°N, 16.4318°E)
Time: 21:21:43
(UTC+01:00)

ISS - Pass Details

Date: 24 January 2019
Orbit: 403 x 411 km, 51.6° (Epoch: 23 February)

Event Time Altitude Azimuth Distance (km) Brightness Sun altitude
Rises 19:16:36 0° 239° (WSW) 2,331 0.9 -25.7°
Reaches altitude 10° 19:18:42 10° 234° (SW) 1,474 -0.3 -26.1°
Enters shadow 19:19:46 19° 228° (SW) 1,061 -1.3 -26.2°
